Location: Newark
(48.4472°N, 1.4892°E)
Time: 05:56:04
(UTC+00:00)

deb Explorer IX - Pass Details

Date: 20 November 2019
Orbit: 546 x 1104 km, 38.8° (Epoch: 14 December)

Event Time Altitude Azimuth Distance (km) Brightness Sun altitude
Exits shadow 03:46:06 16° 144° (SE) 1,798 ? -33.2°
Drops below altitude 10° 03:47:21 10° 134° (SE) 2,147 ? -33.0°
Sets 03:49:51 0° 122° (ESE) 2,976 ? -32.6°
